Location: Valley Falls
(35.0169°N, 81.9753°W)
Time: 00:16:54
(UTC+00:00)

N. Korean satellite - Pass Details

Date: 01 December 2022
Orbit: 407 x 442 km, 97.3° (Epoch: 05 February)

Event Time Altitude Azimuth Distance (km) Brightness Sun altitude
Rises 11:38:49 0° 349° (N) 2,517 9.9 -8.1°
Reaches altitude 10° 11:41:38 10° 324° (NW) 1,628 8.7 -7.6°
Maximum altitude 11:43:32 14° 291° (WNW) 1,381 8.2 -7.2°
Drops below altitude 10° 11:45:26 10° 257° (WSW) 1,609 8.7 -6.8°
Sets 11:48:11 0° 232° (SW) 2,466 9.9 -6.3°
